Theta_e
307 307 308 309 313 317 320 319 318 319 321 321 323 320 318 320 322 320 318 328 341 343 342 342 340 341 344 347 349 349 348 350 350 348 350 350 347 346 345 346 345 344 344 343 341 339 335 333 334 334 335 336 336 337 337 337 338 336 335 335 335 334 333 332 331 331 331 331 331 331 330 330 330 330 329 330 331 333 334 334 334 334 334 334 332 329 327 323 317 317 316 313 312 312 314 314 314
307 308 308 314 317 318 319 318 320 322 321 318 319 320 319 320 322 321 319 330 344 343 343 344 342 344 345 345 347 348 349 350 349 350 351 349 347 347 347 347 345 344 344 342 340 339 336 333 334 335 335 336 336 337 337 337 338 336 336 335 335 335 334 334 333 333 333 332 332 331 331 331 330 330 329 329 330 332 334 334 335 335 335 335 334 333 332 329 321 320 318 313 312 311 311 312 312
311 312 311 316 318 318 318 319 322 321 320 317 316 320 320 320 321 321 320 329 343 344 345 344 345 346 345 350 352 350 351 350 350 351 350 348 348 347 347 347 344 344 343 341 340 339 337 334 334 334 335 336 336 337 337 338 338 336 335 334 334 334 334 334 334 333 333 332 332 332 331 331 330 329 329 330 331 331 333 334 335 336 336 336 335 334 334 333 327 327 325 316 312 311 310 311 312
312 315 316 316 317 317 319 322 327 323 320 318 316 321 322 320 321 319 319 333 344 344 344 345 346 346 347 353 353 349 350 350 350 351 350 348 347 348 348 345 344 344 343 341 339 338 336 335 335 334 335 336 335 337 337 337 338 337 334 333 333 333 333 333 332 332 331 330 331 331 329 329 329 328 328 329 330 331 331 332 333 334 335 336 335 335 334 334 331 328 328 322 314 311 312 313 314
311 316 316 316 318 317 319 322 325 323 319 320 320 323 324 319 319 317 320 335 341 341 344 345 348 346 347 349 348 349 350 350 350 350 349 347 347 349 348 344 343 343 342 340 338 337 336 335 334 334 336 335 334 336 338 337 337 336 334 332 332 332 333 332 331 331 330 329 330 329 327 327 327 328 328 329 329 329 330 330 331 331 332 334 334 335 334 334 331 325 325 324 316 313 315 315 316
314 316 316 316 317 316 319 319 321 322 318 321 323 324 323 318 318 317 323 337 337 338 343 344 346 346 347 348 348 349 350 349 348 349 349 349 349 349 347 344 343 342 341 339 338 337 335 335 333 334 335 335 335 335 336 337 337 336 334 332 331 331 331 331 330 329 329 329 328 326 325 326 326 326 326 326 326 325 325 325 324 325 327 328 330 332 331 330 330 326 325 323 317 316 319 320 321
315 316 316 316 316 315 322 323 323 322 320 320 320 322 321 319 318 316 320 336 341 340 344 344 343 347 349 348 349 349 348 349 347 349 349 349 349 348 345 342 342 341 340 339 337 337 335 334 334 333 334 335 335 334 334 336 337 335 333 331 330 331 330 329 329 329 329 328 326 325 324 324 324 324 324 324 324 323 323 322 321 321 322 322 323 325 325 326 329 328 326 324 318 318 324 325 326
315 315 315 318 319 317 320 322 321 321 321 319 317 318 319 319 317 316 317 328 342 341 344 345 341 349 350 346 349 349 348 349 348 349 349 347 347 345 343 342 341 340 338 337 336 336 335 334 333 333 333 335 334 334 334 333 336 335 333 331 330 330 329 328 328 328 328 326 325 324 324 324 325 324 325 326 326 325 324 324 323 322 322 321 320 321 322 325 329 328 327 326 321 320 326 328 329
314 315 314 319 321 318 320 320 317 317 319 318 316 315 316 317 315 317 316 323 340 342 344 345 341 349 349 346 348 349 349 349 349 349 347 346 345 343 342 341 340 338 338 336 334 334 334 333 332 332 333 334 333 333 334 333 334 333 332 331 330 329 328 328 327 327 325 325 324 325 326 327 327 327 327 328 328 326 325 324 324 323 322 322 321 321 321 325 327 326 326 326 323 320 325 330 330
314 315 313 318 320 318 320 319 318 319 318 316 315 315 315 316 315 316 314 321 339 343 344 343 342 347 348 347 347 348 350 349 349 348 346 344 343 342 341 341 339 338 337 336 335 334 333 334 332 332 332 332 332 332 334 333 332 332 331 330 329 329 327 327 326 325 325 324 325 326 328 329 329 329 329 329 328 327 325 324 323 323 323 324 323 322 321 322 322 322 322 323 325 321 320 328 331
315 313 313 319 320 317 319 319 320 320 317 315 314 316 316 315 314 314 316 325 338 344 344 344 345 346 347 347 347 349 349 349 349 347 345 343 342 341 342 340 339 338 337 337 336 334 333 334 332 331 331 331 332 332 333 333 331 330 329 328 328 327 326 325 325 325 325 325 325 327 328 329 330 330 330 329 328 328 326 324 323 322 323 325 326 325 324 323 322 321 319 319 324 323 318 324 331
316 314 318 322 321 319 319 318 319 319 317 316 317 317 316 315 313 316 329 337 340 344 343 344 347 346 347 347 347 348 349 349 348 346 344 343 341 341 341 339 338 338 338 337 335 333 333 333 332 331 330 331 332 332 333 331 329 329 328 327 327 326 326 325 326 326 325 325 326 327 328 329 330 330 330 329 329 329 328 326 324 323 323 326 328 327 327 326 325 323 320 317 318 323 318 319 330
316 316 320 321 320 321 318 316 319 321 320 318 317 316 315 315 313 319 332 338 339 343 340 341 344 344 346 347 347 348 349 347 345 344 343 341 341 341 341 339 337 338 337 337 335 333 334 332 331 331 330 332 332 333 332 329 328 328 328 327 327 326 326 326 327 327 326 326 327 328 328 329 329 329 329 329 329 328 328 327 325 324 323 324 326 326 325 326 327 325 324 318 314 320 319 316 328
316 315 317 318 318 319 317 316 318 317 317 317 315 314 316 315 315 321 330 337 338 339 341 341 341 344 347 347 347 347 347 346 343 343 342 341 342 341 341 339 338 338 337 336 334 333 333 331 331 331 330 331 332 332 331 328 328 328 327 327 327 326 327 327 327 327 327 327 328 328 328 328 328 328 327 327 328 328 327 327 325 324 324 322 321 322 324 326 326 326 325 320 314 316 319 315 323
315 313 318 318 317 317 314 316 316 314 316 316 314 314 315 316 318 321 328 341 343 340 343 343 339 345 350 348 347 347 347 345 343 342 342 342 343 342 341 339 338 338 337 335 334 332 332 331 331 331 330 330 330 330 329 327 328 327 327 327 327 327 327 327 328 327 328 328 328 328 328 327 327 327 326 326 326 326 326 325 323 323 323 320 318 319 322 325 326 324 321 320 315 314 318 314 319
315 314 316 316 316 316 314 315 315 315 318 317 315 314 314 316 321 325 326 335 344 342 342 342 338 341 345 345 346 347 347 345 343 343 343 343 343 341 340 339 338 337 337 336 334 331 332 332 331 331 330 329 329 328 328 327 328 328 328 328 328 328 327 327 327 327 328 328 327 327 327 327 327 327 327 327 326 326 325 323 323 322 321 320 320 319 317 321 323 323 319 318 315 313 316 314 315
315 314 315 315 316 316 316 317 315 316 317 316 314 313 314 317 325 334 334 337 343 341 339 341 340 339 340 343 346 347 346 344 344 344 345 344 343 342 340 339 337 337 337 336 334 331 332 332 332 331 329 329 329 328 328 327 330 330 329 329 329 328 328 328 328 328 328 327 327 327 327 327 328 327 327 328 327 327 325 323 323 322 321 321 321 320 317 316 318 322 322 317 315 314 315 313 313
314 316 317 315 316 315 318 319 314 314 316 315 314 313 314 316 321 331 337 340 340 341 341 342 342 341 342 344 346 347 345 344 344 345 346 345 344 343 341 339 337 337 337 335 333 332 333 333 332 332 331 330 329 328 328 328 330 331 329 330 329 328 329 329 329 328 328 328 328 327 327 327 327 328 327 328 328 328 326 324 324 322 321 321 320 319 317 316 315 320 323 318 314 314 314 312 314
314 317 316 315 316 315 315 316 314 314 315 315 313 314 314 315 317 320 335 340 340 347 345 342 343 343 344 345 346 346 344 344 343 344 345 344 344 343 340 338 337 337 336 335 334 334 334 334 334 333 332 331 329 329 329 329 329 329 328 329 329 329 330 329 330 330 329 329 329 328 328 328 328 328 327 328 328 329 328 326 325 322 319 319 320 318 318 319 316 318 322 317 314 315 315 312 317
312 314 315 315 316 315 313 313 314 314 314 314 313 314 314 315 315 317 334 339 341 348 346 342 343 343 344 345 345 344 344 344 344 344 344 343 343 342 340 339 338 337 337 336 335 335 335 334 334 334 333 331 330 331 331 330 330 329 329 329 329 330 331 330 330 331 330 330 330 329 328 329 329 328 328 328 328 328 329 328 326 323 318 317 319 319 320 320 318 320 321 316 314 316 316 314 321
312 313 315 316 313 313 314 313 314 314 314 313 313 314 314 315 316 323 335 338 340 342 342 341 342 343 344 344 344 344 345 344 344 345 344 342 341 340 340 339 338 338 337 336 335 335 335 334 335 334 333 332 332 332 332 332 331 330 330 330 330 331 332 333 332 331 331 331 330 329 329 329 329 329 328 328 328 328 329 329 327 325 320 318 320 322 323 321 319 322 320 317 316 317 317 316 323
312 311 312 313 311 312 314 313 314 314 314 314 313 313 315 315 315 324 330 332 335 339 338 337 338 342 343 343 344 345 344 343 345 344 343 342 340 340 340 339 338 337 336 334 333 334 335 335 335 334 333 333 333 333 333 332 332 332 331 331 332 331 332 333 332 330 330 331 331 330 330 330 330 330 329 328 328 328 329 329 328 327 323 320 322 326 327 323 320 321 319 321 321 318 319 317 322
313 313 311 311 311 311 313 313 314 314 314 313 313 314 315 315 315 324 327 324 327 332 337 337 338 341 343 344 344 344 344 343 344 343 341 341 340 339 339 339 338 336 334 333 334 335 335 335 336 334 334 335 335 334 333 332 333 332 332 331 332 332 332 332 331 331 330 330 331 330 330 330 330 330 329 329 329 328 329 330 329 329 327 325 325 328 329 325 320 320 319 323 325 322 321 319 321
313 314 311 312 312 311 313 313 312 313 314 313 314 314 315 314 314 326 335 331 328 334 338 338 341 343 343 344 344 343 343 342 343 342 340 340 339 338 339 338 337 334 333 334 335 335 336 336 336 335 335 335 335 335 334 333 333 333 332 331 332 332 332 332 332 331 331 331 331 331 330 330 330 330 330 329 329 329 329 330 329 329 329 328 328 329 329 326 321 320 320 321 325 326 323 321 321
312 312 311 312 312 312 313 313 312 313 312 314 314 313 314 315 319 334 341 341 337 339 339 340 342 343 342 343 343 343 342 342 342 341 341 340 339 338 338 337 334 332 331 334 334 334 336 337 336 336 336 336 335 335 335 334 334 334 333 332 332 332 333 332 332 332 332 332 332 331 331 331 331 331 331 330 330 329 329 330 330 330 331 330 330 330 329 327 324 321 320 319 323 326 325 324 325
311 311 311 310 311 313 313 312 312 312 312 313 312 313 315 316 328 341 343 344 343 341 341 341 343 342 342 342 342 343 342 342 342 341 341 340 340 338 338 335 331 329 328 332 335 335 337 337 337 337 336 337 336 335 335 335 335 335 335 334 333 332 333 333 333 333 332 332 332 332 332 331 331 331 330 330 330 330 330 330 330 330 330 330 330 330 329 328 327 323 321 320 322 326 326 327 328
311 311 311 311 312 312 311 311 312 312 312 314 313 315 315 313 335 348 342 345 344 342 343 342 343 342 342 342 342 343 342 342 342 341 341 340 340 338 337 333 329 329 330 333 336 336 337 337 337 336 336 337 336 335 335 335 334 334 334 334 334 333 333 334 333 333 333 332 332 332 333 332 331 331 330 331 331 330 330 330 330 329 329 330 330 331 329 329 329 327 324 322 324 326 326 327 327
312 313 313 313 312 310 311 311 311 312 312 314 314 313 313 311 332 350 343 345 344 342 344 342 343 342 341 342 342 343 343 343 342 342 341 340 338 337 335 331 328 331 333 335 336 336 337 337 336 336 336 336 335 334 334 333 333 333 333 333 333 332 332 332 333 333 332 332 332 332 332 332 332 331 330 331 331 330 330 331 329 327 328 329 329 329 330 329 329 329 327 326 325 326 327 327 326
313 313 314 316 313 311 312 311 311 313 313 315 313 312 316 311 324 343 344 345 344 342 343 342 342 341 341 342 342 343 343 343 342 342 340 338 337 337 334 331 329 330 334 336 336 336 335 334 335 335 335 335 335 334 333 333 332 332 331 331 331 331 331 331 332 332 332 331 330 330 331 331 332 332 332 332 331 331 331 331 328 326 326 328 328 328 329 330 329 329 329 329 327 327 328 328 327
314 312 313 315 315 316 313 311 312 313 314 315 312 315 319 317 325 341 345 343 344 342 342 342 341 340 340 341 343 343 343 343 342 341 339 337 336 335 332 330 328 328 333 336 335 335 334 333 334 334 335 334 333 332 331 331 330 329 329 330 331 331 330 330 331 332 332 330 330 330 330 331 331 331 332 331 331 331 331 331 328 326 326 327 327 327 328 330 329 329 329 329 329 327 327 328 329
315 313 315 315 312 317 315 311 313 313 314 314 314 315 315 325 335 343 345 343 343 343 342 342 340 340 340 341 343 343 343 342 341 341 339 336 334 332 331 329 328 330 333 335 334 334 334 333 332 332 332 332 331 331 329 328 327 327 327 328 329 329 329 328 329 330 331 330 330 330 330 331 331 330 331 331 331 331 330 330 330 328 327 326 326 326 327 329 329 329 329 329 329 329 327 328 328
317 312 320 321 313 316 317 312 314 314 314 313 314 314 314 329 342 343 343 344 342 342 342 341 340 339 340 341 342 343 343 342 341 340 339 336 333 332 332 329 328 331 333 334 334 334 334 332 332 331 330 329 329 329 328 326 324 324 327 328 328 328 327 326 326 328 329 330 330 330 331 331 330 330 330 330 330 331 330 330 330 330 328 327 327 326 326 327 329 329 329 329 329 329 329 328 328
325 316 318 323 316 314 317 312 312 313 313 313 313 315 315 327 339 342 343 343 342 342 341 340 339 339 339 340 342 343 342 342 341 340 338 337 334 332 333 331 330 332 333 332 332 332 332 331 331 330 328 327 326 325 325 325 322 323 326 327 327 326 325 324 326 328 328 329 329 330 330 330 329 330 329 329 329 330 331 329 329 330 329 329 328 327 326 327 328 328 329 329 329 329 329 329 329
327 324 321 322 318 314 315 315 313 311 313 313 312 316 314 319 333 341 342 341 340 341 340 339 339 338 339 339 341 343 343 342 340 338 336 336 334 331 330 331 332 334 333 331 329 330 330 329 330 329 327 326 324 322 323 324 321 323 326 326 325 325 323 322 325 327 327 327 329 329 329 329 328 329 328 328 328 329 330 329 329 329 328 329 328 327 326 327 327 328 329 329 329 329 329 329 328
320 322 321 321 320 316 315 317 315 313 313 314 313 315 314 319 331 340 340 340 339 338 338 339 338 338 338 338 339 342 342 340 337 335 334 334 332 328 329 332 333 334 333 330 328 329 330 328 329 328 327 325 322 322 322 320 318 321 324 324 324 323 322 322 323 325 326 326 327 328 328 328 329 329 328 327 327 328 328 329 329 328 326 327 327 327 327 327 327 327 328 330 329 328 328 328 327
316 317 318 319 320 317 316 316 316 315 313 314 314 312 316 326 335 339 338 338 337 337 338 337 338 337 336 337 338 340 342 337 334 334 334 332 329 328 331 332 333 332 331 330 328 328 330 329 328 328 327 324 321 321 319 315 315 318 320 320 321 321 321 323 324 323 323 323 325 327 328 328 328 328 328 328 327 327 328 328 328 328 326 326 326 326 327 327 326 326 328 330 329 328 327 328 327
314 315 318 318 318 317 316 317 317 316 313 314 314 313 320 332 338 338 336 336 334 334 335 335 336 336 336 336 337 339 339 335 333 335 334 331 330 332 333 332 332 331 330 329 328 328 329 329 328 327 325 321 317 317 316 314 314 315 316 317 318 318 319 321 322 321 320 320 323 326 327 328 328 328 328 327 327 327 328 328 328 328 328 327 327 327 326 327 326 327 328 329 329 328 327 327 327
316 317 319 317 317 318 316 317 318 317 315 315 315 315 320 326 332 334 333 333 333 332 333 334 334 335 336 337 337 337 337 334 334 336 334 332 332 333 333 332 332 330 330 329 329 329 329 328 328 323 319 317 315 315 315 313 315 316 316 316 316 317 317 319 320 319 318 318 320 321 325 327 327 327 328 327 327 327 327 328 328 327 327 326 327 327 326 327 327 327 328 329 329 328 328 328 328
318 318 318 317 318 318 317 322 324 321 317 316 317 315 316 320 326 330 332 332 332 331 333 334 334 335 335 336 336 335 335 335 334 334 334 333 332 332 333 332 331 330 330 329 329 329 329 328 325 318 314 314 314 315 314 314 316 317 318 317 317 318 317 317 317 316 315 316 317 318 320 325 327 327 327 327 326 326 325 326 326 326 326 325 325 325 326 327 328 328 328 328 328 328 328 328 328
321 318 314 317 318 316 317 323 325 326 322 319 321 321 321 324 322 323 328 328 328 330 332 334 334 334 335 336 336 335 335 335 333 332 332 332 331 332 332 330 330 331 330 330 329 329 329 327 321 314 313 314 313 313 314 315 316 317 318 318 319 319 318 317 316 314 313 314 316 316 316 319 323 326 326 325 324 324 323 322 324 325 325 324 324 324 325 326 327 328 328 328 327 327 328 328 327
328 324 317 319 320 316 316 320 326 333 329 325 330 329 324 325 321 318 322 323 325 328 330 332 333 333 333 334 335 336 336 334 334 331 329 331 332 332 331 330 330 330 330 330 329 328 329 325 316 312 313 312 313 314 315 316 317 317 318 319 320 320 319 317 316 316 314 312 313 314 313 313 316 319 320 320 320 320 319 318 320 323 324 324 324 324 324 325 327 328 327 327 327 327 327 328 328
327 329 325 322 321 320 319 322 329 332 326 321 323 322 321 325 325 320 320 324 329 328 328 330 331 332 332 331 332 334 334 334 333 331 329 332 332 332 331 329 330 330 329 330 329 329 329 321 313 312 312 312 313 315 317 317 317 317 317 317 318 318 316 315 315 317 315 312 310 310 311 311 313 315 316 317 318 318 316 316 319 322 324 324 323 323 323 324 325 327 328 327 327 327 327 327 327
320 326 329 324 321 320 320 325 327 324 321 320 322 324 324 327 326 322 321 327 332 329 328 328 328 330 331 330 331 332 332 333 332 330 330 332 332 332 331 329 330 329 329 330 328 329 326 319 313 312 312 312 314 316 317 317 317 317 317 317 317 316 315 314 316 316 313 309 308 307 309 311 312 314 315 317 319 319 317 317 321 323 324 323 323 323 322 323 324 326 327 327 326 327 326 326 325
320 325 327 324 321 320 323 328 325 321 322 323 329 331 325 324 325 323 321 323 329 330 329 327 325 328 330 330 330 330 331 331 331 330 330 332 332 331 331 330 330 330 329 329 329 328 324 317 313 313 312 313 314 316 317 318 318 318 318 319 320 319 318 317 317 315 310 307 307 307 308 310 311 312 314 315 318 318 317 317 319 322 323 323 322 322 321 322 322 323 324 325 326 325 325 326 326
324 326 321 320 322 324 329 330 324 325 321 319 332 330 319 326 333 327 322 319 322 327 329 327 324 325 328 329 330 330 330 330 331 330 329 331 332 331 331 331 331 330 330 330 328 326 321 316 314 313 313 313 314 316 318 319 320 320 320 320 321 321 320 319 317 312 308 307 307 307 310 312 313 314 314 315 316 317 317 316 316 318 321 322 321 321 321 320 320 320 321 322 323 323 324 324 325
323 323 319 320 325 328 331 329 327 331 324 318 330 326 316 327 340 334 324 318 319 324 327 324 322 324 327 327 328 330 330 329 330 329 328 330 331 331 331 331 331 330 330 330 329 325 319 315 314 314 313 313 314 316 319 321 322 322 322 322 322 321 320 318 314 309 307 307 307 308 311 314 315 315 315 315 317 318 317 317 317 316 318 320 321 320 320 318 317 317 319 320 319 321 322 322 322
317 319 319 319 324 330 334 335 329 325 324 324 329 327 318 323 335 336 326 318 317 321 326 323 319 320 324 326 327 329 330 330 330 329 328 330 331 331 330 330 331 331 330 330 329 327 321 316 315 315 314 313 314 318 320 322 323 323 323 321 321 321 318 314 310 308 307 307 307 307 310 314 315 314 313 313 316 317 317 316 316 315 315 317 318 318 318 316 313 312 316 317 315 318 320 321 321
317 322 322 317 321 326 329 332 327 322 324 328 329 325 319 320 327 330 328 325 321 319 323 325 319 316 321 325 326 328 330 330 329 329 328 329 331 331 331 330 330 330 330 330 329 328 326 321 317 315 314 314 317 321 322 322 323 323 321 319 320 319 315 310 308 308 307 307 306 306 308 310 311 310 310 311 313 314 314 312 310 310 311 314 316 316 313 310 309 310 313 312 311 315 318 318 316
319 324 325 320 320 321 324 327 325 326 324 322 326 323 318 324 328 325 327 326 320 317 316 318 317 315 319 324 325 327 329 329 329 329 328 329 330 330 330 330 330 330 330 329 329 328 328 326 322 317 316 316 317 318 319 320 321 322 318 315 316 315 311 309 308 308 308 307 306 306 306 307 307 307 307 308 309 310 309 307 305 305 306 308 310 309 306 305 306 308 309 308 308 311 312 310 308
316 320 324 322 321 320 322 323 320 322 322 320 323 321 319 325 323 321 324 319 315 314 314 316 317 318 321 323 325 327 328 328 328 328 329 329 330 330 330 330 329 329 329 329 329 329 328 328 326 322 319 318 317 318 319 318 319 322 318 313 312 312 310 308 308 308 308 307 306 306 306 306 306 306 306 307 307 307 306 305 305 305 305 306 305 305 305 305 305 305 305 305 306 306 306 306 305
315 318 318 319 325 323 321 322 320 320 321 321 319 317 323 324 316 317 319 315 316 319 319 320 321 321 324 324 326 326 326 327 327 327 328 328 329 330 329 329 329 328 329 329 328 329 328 329 329 327 324 322 321 321 321 318 317 321 320 314 312 311 310 309 308 308 308 307 306 305 305 305 306 306 306 306 306 306 306 306 306 306 306 306 306 306 306 306 306 306 306 306 306 305 305 305 305
313 314 314 315 321 325 321 318 323 325 323 321 318 319 327 324 315 316 317 315 319 321 322 323 323 324 325 324 325 326 325 326 326 326 327 326 327 328 327 328 328 328 328 328 328 328 328 329 330 329 328 327 325 322 321 319 317 319 320 316 312 311 313 311 309 308 308 307 306 305 306 306 305 306 306 305 306 306 306 306 306 306 306 306 306 306 306 306 306 306 306 306 305 305 305 305 305
315 311 315 316 315 324 324 315 320 326 322 321 319 319 324 323 318 319 320 319 319 319 321 322 323 324 324 324 325 325 325 325 325 326 326 325 326 326 326 326 326 327 327 327 328 327 328 329 329 330 330 329 327 323 321 322 319 319 320 316 312 313 314 312 311 311 309 307 307 306 306 306 306 306 306 306 306 306 306 306 306 306 306 306 306 306 306 306 305 305 305 305 305 304 304 304 304
316 313 316 317 312 320 327 322 323 321 319 324 320 315 319 322 321 321 321 321 319 320 322 320 322 324 323 324 325 325 326 326 325 326 325 325 326 325 326 326 325 326 326 326 327 327 328 329 330 330 330 329 325 322 322 323 321 320 319 315 313 315 314 309 311 316 313 307 307 307 306 306 306 306 306 306 306 306 306 306 306 306 306 306 306 306 306 306 305 305 305 305 305 306 305 306 306
313 313 313 316 317 320 321 321 322 319 318 321 317 317 319 318 320 321 320 321 320 320 321 321 322 322 321 323 324 324 325 325 325 326 325 325 325 324 324 324 324 325 326 327 327 328 328 329 330 331 331 329 325 324 324 323 322 320 318 316 315 318 316 310 309 315 315 309 307 307 306 307 306 306 306 306 306 306 306 306 306 306 306 305 305 305 305 306 306 306 307 307 307 307 307 307 307
313 314 314 318 324 325 318 318 321 321 320 318 316 320 322 321 322 321 320 323 321 320 321 322 320 320 321 322 323 325 325 324 325 325 325 324 321 320 318 318 320 323 325 327 328 329 328 329 330 330 330 329 326 325 324 322 321 319 318 317 317 317 317 313 310 315 317 312 308 308 307 307 307 306 307 306 307 307 306 307 307 306 306 306 306 306 306 307 307 307 307 308 308 308 308 308 308
313 317 319 317 317 317 316 316 317 321 325 323 321 321 323 328 326 320 321 323 320 319 322 322 319 320 322 322 323 325 325 326 326 323 322 320 317 316 315 316 319 321 324 325 326 328 328 328 328 328 329 329 327 324 323 322 320 319 318 318 318 317 317 315 312 316 318 315 311 310 310 310 310 308 307 307 307 307 307 307 307 307 308 307 307 307 307 307 307 308 308 308 308 308 308 308 308
311 314 315 315 316 316 316 315 315 321 326 324 324 322 324 329 325 320 322 322 318 318 320 320 319 320 322 322 324 324 325 326 325 322 321 320 321 320 317 317 320 322 323 324 325 326 327 327 328 327 328 328 327 326 324 324 322 320 319 317 316 318 317 315 313 316 318 317 315 313 313 314 315 313 311 309 308 308 308 307 308 308 308 308 308 308 308 308 308 308 308 308 308 308 308 308 308
Wind_Speed
5 5 6 8 10 10 6 5 2 2 2 1 3 1 4 5 2 3 5 3 1 3 3 10 12 12 11 10 12 12 11 3 4 3 5 9 22 28 25 25 26 28 30 29 28 28 26 24 23 22 21 21 22 22 22 21 20 20 21 21 21 20 20 18 18 18 17 17 16 16 15 15 15 14 14 14 15 15 15 14 13 13 12 10 8 7 6 6 8 10 11 11 11 12 12 12 12
7 6 8 11 9 7 5 3 1 2 3 2 4 3 4 4 3 5 7 3 5 6 14 22 20 18 15 14 11 11 13 8 6 9 12 19 27 29 26 25 28 30 30 29 29 28 28 25 23 21 21 21 21 22 22 21 20 20 20 21 20 20 19 18 17 16 16 15 15 15 14 13 13 12 13 13 13 13 14 14 13 13 12 11 9 7 6 5 6 10 11 11 11 12 13 13 13
8 6 8 10 7 5 4 3 1 1 3 3 5 3 3 4 5 7 6 3 12 16 18 19 15 12 9 9 8 7 6 8 13 16 19 23 27 30 26 25 30 30 30 30 29 29 28 26 24 22 21 21 21 21 21 21 19 19 19 20 20 19 19 17 16 16 15 14 14 13 12 12 11 11 11 12 12 12 12 12 12 12 12 11 10 9 8 6 6 9 9 10 11 12 13 14 15
7 6 7 8 6 4 4 2 2 4 2 4 3 5 3 4 6 4 7 1 17 18 11 9 9 7 9 10 9 9 7 9 14 18 21 23 25 29 27 27 30 30 31 30 29 28 28 26 24 22 20 20 20 21 21 21 20 19 19 19 19 19 18 17 16 15 14 13 13 12 11 11 10 10 11 12 12 11 10 10 10 10 10 10 10 10 9 7 5 6 8 8 11 12 13 15 16
5 6 6 5 4 1 2 2 2 3 4 4 2 5 4 6 5 4 7 1 14 12 7 7 6 6 12 10 7 8 10 13 14 18 23 23 23 26 26 28 29 30 30 29 28 27 27 25 24 22 20 19 19 20 20 20 19 18 18 18 19 19 18 16 15 15 14 13 13 12 11 11 11 12 12 12 11 11 10 9 8 8 8 8 9 8 7 6 3 4 7 8 10 13 14 15 16
5 7 6 3 3 1 2 1 2 3 5 4 3 6 6 8 5 5 4 0 9 10 6 4 10 10 9 8 7 13 15 11 14 20 23 23 23 25 26 28 29 29 29 28 28 26 26 25 23 21 20 19 18 18 19 20 19 18 18 18 19 18 18 16 16 15 15 14 14 13 13 13 13 13 12 12 11 10 9 9 8 7 7 7 7 6 5 4 3 2 5 7 9 13 15 16 16
6 6 4 3 2 2 3 2 4 4 5 4 3 6 8 11 9 7 4 2 2 7 6 7 18 14 6 4 9 12 11 7 13 20 21 22 24 25 27 29 29 29 30 28 27 26 25 24 23 22 20 19 18 18 18 19 19 19 18 18 18 18 18 17 17 16 16 16 15 15 15 14 14 13 13 12 11 10 9 9 8 8 7 6 6 6 5 5 4 2 4 8 8 13 17 17 17
5 5 3 3 1 2 2 2 4 4 4 4 4 7 11 17 15 9 4 1 2 4 7 14 16 10 2 2 5 6 9 8 14 18 21 22 24 27 28 29 30 29 28 27 26 25 24 23 23 22 21 20 19 19 18 19 20 19 18 17 18 18 18 17 17 17 17 17 16 16 16 15 14 13 13 12 11 10 9 9 8 8 7 7 7 7 7 6 6 3 3 7 8 13 17 17 17
5 4 3 3 1 2 1 3 4 2 4 5 5 10 16 22 19 11 5 3 4 4 8 7 4 6 5 5 6 7 10 11 13 18 21 22 26 30 30 31 31 29 26 25 24 23 22 22 22 22 21 20 20 19 19 19 19 19 18 17 17 17 17 17 17 17 17 17 17 16 15 14 13 13 12 12 11 10 10 9 9 8 8 8 7 7 7 7 5 4 3 6 9 11 16 18 18
4 3 3 2 2 1 3 3 3 3 5 5 7 15 20 23 20 14 8 5 6 8 7 4 6 11 11 7 6 8 12 13 16 21 22 23 28 30 31 32 31 30 29 27 24 21 18 17 18 19 19 19 19 19 19 18 18 18 17 17 17 17 17 17 17 17 17 17 17 15 14 13 12 12 11 11 10 10 10 9 8 7 7 7 7 7 6 6 5 4 3 5 8 9 14 18 18
3 2 3 3 3 1 4 3 3 4 6 4 9 19 22 20 15 12 7 5 8 11 12 11 13 15 13 6 5 11 15 16 18 22 24 26 28 28 30 32 30 29 28 27 25 21 16 15 15 15 16 17 17 19 19 18 18 18 18 18 18 18 17 17 17 17 17 17 16 15 13 12 11 11 10 10 9 9 9 8 7 6 6 6 7 8 7 6 5 4 3 4 8 9 12 17 19
1 0 4 3 2 3 4 2 4 6 7 5 7 15 22 18 8 7 6 8 10 11 8 7 12 16 11 3 7 14 18 18 18 21 24 28 28 27 29 31 29 26 26 25 24 22 17 15 14 14 16 16 17 18 18 18 18 19 18 18 18 18 18 17 17 16 16 15 15 14 12 11 11 10 9 9 8 8 8 7 6 6 6 6 7 8 7 7 6 5 5 5 7 9 11 17 20
2 2 4 2 3 3 3 2 4 5 5 5 5 14 26 15 2 9 10 9 10 8 4 11 21 17 7 4 11 17 19 20 19 21 25 27 26 28 29 28 26 24 25 25 22 21 18 16 15 15 16 16 17 18 18 19 19 19 18 18 18 18 17 17 16 15 15 14 13 13 11 11 10 9 9 8 7 7 7 6 5 5 6 6 6 6 6 6 6 6 6 6 7 10 12 17 21
3 3 4 2 1 2 2 2 3 2 4 5 4 16 26 10 3 10 12 9 3 6 9 19 24 14 7 7 9 18 22 21 22 23 25 24 25 27 27 25 24 24 25 26 21 20 20 19 17 16 17 17 18 18 18 19 19 19 18 18 18 17 17 16 16 15 14 13 13 12 11 10 9 8 8 7 7 6 6 5 4 5 6 5 5 5 5 5 6 6 6 6 7 10 12 16 22
3 1 3 2 2 2 1 3 2 2 4 5 8 18 22 11 4 9 10 8 3 11 17 19 19 8 11 13 10 24 26 25 25 24 25 24 25 26 26 26 25 24 24 25 22 20 21 20 18 16 17 17 17 18 18 19 18 18 18 17 17 17 16 16 15 14 13 13 12 12 11 10 9 8 8 7 6 6 5 4 4 5 5 5 4 4 4 5 5 5 5 6 6 10 13 16 23
3 1 3 1 2 2 2 3 3 3 5 5 13 18 15 12 8 7 3 10 13 16 13 13 12 1 16 22 18 31 30 29 28 25 27 25 25 25 27 27 25 25 24 24 22 21 20 19 19 17 16 16 17 17 18 18 17 17 17 16 16 16 15 15 14 13 13 13 12 11 11 10 9 8 7 6 5 5 4 4 4 4 5 4 3 3 3 4 4 4 5 5 6 10 13 15 22
4 2 3 1 3 2 3 3 3 3 6 7 15 19 8 8 11 14 10 18 20 13 7 8 8 5 17 21 22 35 31 30 29 27 27 24 26 27 28 28 26 27 25 25 25 24 21 20 19 18 16 15 16 17 17 17 16 16 15 15 15 15 15 14 13 13 13 12 12 11 11 10 9 9 7 5 4 4 4 4 4 4 4 3 3 3 3 3 3 4 4 5 7 10 13 15 21
4 2 2 3 3 3 5 5 3 3 5 6 12 16 6 3 7 9 10 15 17 12 10 9 4 5 16 17 26 36 31 31 30 29 28 25 27 27 29 28 27 27 25 26 26 25 23 21 20 19 17 16 17 17 17 17 16 16 15 14 14 14 14 13 13 12 12 11 11 10 10 10 9 8 6 5 4 4 5 5 4 4 4 4 4 4 3 3 4 5 4 5 8 11 13 15 21
6 3 2 4 4 5 5 5 4 4 7 9 11 13 6 3 4 1 2 5 9 11 10 12 15 16 18 23 32 34 32 32 30 31 29 26 26 28 30 29 29 28 27 28 26 24 23 22 21 19 19 18 18 17 16 16 15 15 14 14 13 13 13 12 12 11 11 10 10 10 10 9 8 8 6 5 5 5 5 5 4 5 5 5 5 4 4 4 4 6 6 6 9 12 13 16 23
6 4 2 5 5 5 7 9 11 13 11 9 10 12 10 6 6 2 4 5 3 5 7 10 18 23 25 31 34 33 32 30 29 30 27 26 25 27 30 30 31 28 27 27 24 24 23 23 22 21 21 20 19 17 16 16 15 15 14 14 13 12 11 11 11 9 9 9 9 10 9 9 8 7 7 6 5 5 6 6 5 4 5 5 5 5 5 4 5 6 6 8 11 13 13 16 23
4 5 4 5 4 3 11 14 15 17 11 9 11 12 12 9 5 5 9 7 3 4 12 13 21 30 33 34 34 34 33 30 30 29 27 27 27 28 29 28 28 26 25 25 24 25 24 24 23 22 22 20 19 17 16 15 15 15 14 13 11 11 10 10 10 8 8 8 8 9 9 9 8 7 6 5 5 5 6 6 6 4 5 5 5 5 4 4 5 7 8 11 13 13 12 15 22
2 4 6 7 4 2 13 17 15 14 10 9 9 8 9 8 3 9 11 5 3 9 16 18 25 32 35 37 37 35 33 31 31 29 29 28 28 28 28 27 26 24 25 25 25 25 25 24 23 23 22 21 19 16 15 14 14 13 12 11 10 10 10 10 9 8 8 8 8 8 8 9 8 7 6 5 5 6 5 6 6 4 5 5 5 5 4 4 6 7 9 13 14 13 12 14 20
3 5 6 11 10 6 15 19 16 14 9 7 4 7 8 6 5 5 8 5 5 11 19 21 25 31 36 39 37 35 33 32 32 31 30 29 28 27 27 28 27 27 27 26 25 24 24 23 23 23 22 20 18 15 15 14 13 12 11 11 10 10 10 10 9 8 8 8 8 9 9 9 9 8 7 6 6 6 6 6 6 5 5 6 5 5 5 5 7 8 11 14 13 13 12 13 18
5 5 4 13 14 11 20 24 22 19 13 13 9 8 6 3 4 1 3 3 6 11 19 24 27 32 35 37 36 36 34 32 32 30 28 27 26 25 26 27 26 26 26 25 24 24 24 23 23 23 21 19 17 15 14 13 13 11 11 11 10 10 9 9 9 8 9 9 10 10 10 10 10 10 9 8 7 7 7 7 7 6 6 6 6 5 6 6 7 9 11 14 13 12 12 13 15
5 6 6 10 14 16 23 24 24 23 19 20 13 7 9 6 0 4 4 6 11 15 22 27 30 32 33 36 36 35 34 33 31 29 27 26 25 25 25 25 25 26 25 25 24 23 23 23 23 22 20 18 16 15 13 12 11 11 11 10 10 10 10 9 9 10 11 11 11 12 12 11 11 11 11 10 8 8 8 8 7 7 6 7 7 6 7 7 7 9 10 13 13 12 13 14 14
6 9 9 7 12 19 21 19 21 22 17 13 7 7 13 8 6 4 1 10 16 21 27 30 32 33 32 34 34 35 34 33 31 29 27 26 26 25 25 25 26 25 24 24 24 24 24 23 22 20 18 16 14 14 12 11 10 10 10 10 10 10 11 11 11 12 13 13 13 13 13 13 12 12 12 11 9 9 9 9 9 8 7 8 8 7 8 8 8 8 10 13 13 12 13 14 14
4 7 9 10 16 21 18 16 19 18 12 11 8 7 11 9 8 1 5 15 21 26 29 30 33 34 33 33 35 35 33 31 30 28 27 28 28 27 27 27 26 26 25 24 24 24 24 23 20 18 17 14 13 12 11 11 10 9 9 10 11 11 11 13 14 14 14 13 14 14 14 15 14 13 13 12 10 9 10 10 9 8 8 8 9 8 9 9 9 9 10 12 12 10 11 13 13
9 9 8 11 14 16 14 12 14 10 8 11 10 5 5 4 5 8 16 21 24 28 29 29 32 32 33 34 35 35 32 31 29 28 29 30 30 29 29 28 27 27 26 25 24 23 22 19 17 16 15 13 12 11 10 10 9 9 9 10 11 11 11 12 13 14 12 12 13 13 15 15 15 15 13 13 11 10 11 11 9 8 8 9 9 8 9 10 10 10 10 10 11 11 11 13 13
10 7 3 8 8 7 10 8 8 7 4 7 7 1 5 2 3 15 25 25 25 28 30 28 29 30 32 33 35 34 32 30 30 29 30 29 28 28 27 25 25 25 25 25 22 20 18 15 15 14 13 12 11 10 9 9 9 9 9 10 11 10 9 10 11 11 11 10 10 12 14 14 15 15 14 13 11 11 12 12 10 7 7 8 8 8 9 10 10 10 9 10 11 11 11 11 12
7 2 2 5 7 5 8 3 5 6 4 7 6 2 6 6 6 22 28 27 26 25 27 27 26 27 30 33 34 34 32 31 31 30 28 27 26 25 25 24 24 23 23 22 19 17 16 14 14 13 12 12 11 11 10 9 8 7 8 9 9 9 8 8 8 10 10 9 9 10 12 13 14 14 13 12 11 12 12 12 11 8 7 8 8 8 8 9 10 10 10 10 10 12 12 11 10
3 2 2 2 2 5 7 3 2 1 3 8 8 3 6 4 9 24 30 31 31 27 26 26 27 28 31 34 34 33 33 31 30 28 27 26 25 23 23 23 23 22 19 19 17 16 16 15 14 14 13 13 12 11 9 6 5 5 6 7 7 7 7 6 6 8 10 10 10 10 10 12 13 13 13 11 11 12 12 12 11 10 8 8 9 10 9 10 10 10 10 10 10 11 11 10 9
3 2 3 3 1 4 9 5 3 4 5 6 8 3 3 5 13 25 31 32 32 27 23 24 28 30 32 33 32 33 32 30 28 27 27 26 24 22 22 23 23 21 19 18 17 16 17 16 15 15 14 12 11 9 7 4 4 5 6 6 6 7 6 5 5 6 8 9 10 9 9 11 12 12 12 12 11 12 13 12 12 12 11 11 12 12 11 11 12 12 11 10 10 10 10 10 10
4 1 2 4 1 3 6 6 4 8 5 2 5 4 2 4 14 25 30 30 27 24 21 23 28 30 32 32 31 32 31 30 28 27 27 26 23 22 23 24 22 21 21 20 18 17 19 18 17 16 13 10 8 6 5 3 4 6 6 6 6 7 7 5 4 5 6 7 8 8 9 10 10 11 11 12 12 13 14 13 14 14 13 12 13 13 13 13 13 13 12 11 11 11 11 11 11
4 2 0 4 2 1 3 6 6 5 6 4 4 5 3 3 12 21 25 26 22 19 19 21 26 28 29 29 30 32 31 30 29 28 27 25 24 23 24 23 22 23 23 23 21 21 21 18 18 16 12 9 6 5 5 5 6 7 7 7 8 7 6 5 5 6 6 7 7 8 9 10 10 11 10 12 12 13 14 14 15 14 12 12 13 13 14 14 13 14 13 13 13 12 12 12 12
2 2 2 3 3 2 3 5 5 2 3 5 5 5 4 3 10 17 21 22 18 18 23 27 29 28 27 27 28 31 32 31 29 28 26 25 25 24 24 23 24 24 24 23 23 22 21 18 17 15 12 9 8 7 7 8 8 8 9 9 8 7 6 4 4 5 6 7 8 9 10 11 11 11 10 11 11 12 13 13 14 13 11 13 13 13 14 13 13 14 14 14 14 13 12 11 11
4 2 2 3 5 4 5 7 6 3 4 5 6 5 3 6 9 12 16 18 17 19 23 26 25 24 23 24 27 30 32 31 29 28 26 25 27 26 24 24 24 24 24 23 22 22 21 20 18 15 12 11 10 11 11 10 10 9 9 9 8 7 6 4 3 3 4 5 6 8 9 11 11 10 9 9 10 10 11 11 13 12 12 13 12 13 14 14 15 16 15 15 15 15 14 13 11
3 2 3 5 5 6 6 6 6 1 4 5 4 6 5 9 9 9 16 17 14 13 13 15 19 23 24 25 28 31 32 31 29 28 28 28 28 26 25 25 24 24 24 24 23 22 22 20 17 15 14 13 13 13 13 12 10 7 6 7 7 6 4 4 5 5 5 5 6 7 8 10 10 10 9 9 10 11 10 10 11 12 11 11 12 12 13 14 16 16 15 15 15 15 15 14 12
3 3 4 4 4 6 7 5 7 2 3 4 2 9 5 8 8 9 14 13 11 13 14 15 21 23 26 28 30 29 29 29 28 29 30 30 29 28 27 27 27 27 26 25 24 23 23 20 16 15 15 15 14 14 13 12 10 7 4 4 4 3 2 3 5 6 6 6 7 8 9 10 10 9 9 9 10 10 10 11 11 10 9 10 10 12 12 13 15 15 15 16 16 16 16 16 14
3 2 2 3 4 5 7 5 6 4 4 2 1 9 5 3 4 7 13 14 15 21 24 25 27 26 27 31 30 28 28 28 28 29 31 31 30 29 29 30 29 27 25 25 25 25 24 20 16 16 16 17 17 15 14 12 11 9 5 3 4 4 3 3 4 5 6 7 7 9 10 11 11 10 9 9 9 9 9 9 8 7 7 7 8 9 10 11 12 13 14 15 15 15 16 15 14
2 3 3 3 4 1 4 6 7 6 2 2 4 7 2 3 1 5 13 14 11 16 23 24 28 30 30 33 33 32 32 31 30 30 32 32 30 29 31 31 30 27 26 25 26 26 23 20 18 18 18 19 19 17 15 14 12 10 7 5 5 5 4 4 4 5 7 8 8 8 10 11 12 12 11 10 9 8 7 7 6 6 6 6 7 8 8 9 11 11 11 13 14 15 16 15 14
3 5 5 3 3 3 4 5 6 6 5 3 6 6 3 3 2 5 8 8 5 7 15 17 22 25 25 27 30 33 35 35 34 33 35 35 32 31 32 32 31 29 28 26 27 26 22 21 20 19 20 21 20 19 16 14 12 11 9 8 8 8 7 6 6 6 8 10 9 9 9 10 11 11 11 10 9 8 7 7 8 8 7 7 7 7 7 8 10 10 10 12 13 14 14 14 14
4 4 7 7 5 4 4 4 5 5 5 4 5 5 3 5 1 5 4 4 4 6 11 15 19 19 20 23 27 31 32 33 35 36 38 37 33 32 33 33 32 31 29 27 26 24 22 22 21 21 22 23 22 20 16 13 12 10 8 7 7 8 6 5 6 6 8 10 10 9 10 10 9 9 8 8 7 7 6 6 7 7 7 6 5 5 5 6 8 9 9 11 13 14 12 11 12
2 5 7 7 5 2 3 2 4 3 1 3 3 5 3 5 3 5 2 5 7 6 9 12 16 18 20 23 26 29 30 30 32 34 37 37 35 34 35 35 34 32 29 27 25 24 23 23 22 23 24 24 23 20 16 14 12 11 9 6 6 6 4 4 6 7 8 10 10 10 10 10 10 8 6 5 5 5 4 4 5 6 5 5 3 3 2 3 5 7 7 8 10 12 12 10 9
3 5 6 6 5 3 2 5 5 2 2 3 5 5 3 2 4 6 2 5 6 6 9 9 13 20 22 22 24 28 30 31 32 35 37 38 37 35 36 36 34 32 29 26 25 24 24 24 24 25 24 24 24 20 17 15 14 12 11 9 9 9 6 5 7 8 9 10 10 10 11 11 10 8 6 5 5 4 3 3 4 5 5 4 3 3 1 1 1 2 3 3 5 7 9 9 8
6 5 6 5 5 4 3 6 4 1 2 3 6 3 3 3 5 5 2 5 5 8 10 9 13 21 25 24 24 25 29 31 33 36 38 38 37 35 35 35 34 32 29 26 24 23 24 26 26 26 25 25 24 21 18 16 15 13 11 11 11 11 9 7 8 9 10 10 10 11 11 10 9 8 7 7 6 4 2 2 3 5 5 5 4 3 1 1 2 2 2 1 1 2 4 6 6
5 4 5 4 4 5 4 5 3 3 4 2 6 2 2 3 5 4 2 2 4 7 8 9 15 23 26 25 23 24 26 28 30 34 36 36 36 35 33 32 33 32 29 26 24 23 25 27 28 27 26 26 24 21 19 18 17 16 14 13 14 14 13 10 9 10 10 9 10 11 11 11 11 10 9 8 7 5 4 3 4 3 5 5 4 3 1 0 2 1 2 3 4 3 2 2 2
3 4 6 5 5 5 4 3 4 4 2 5 6 1 3 1 5 3 1 1 3 4 5 6 12 19 23 24 24 25 26 27 28 31 32 33 34 33 31 31 31 31 29 27 26 25 25 28 30 29 27 26 25 23 20 19 19 18 16 15 16 16 13 10 11 12 10 8 9 11 12 12 12 10 9 8 8 7 6 5 6 5 4 4 4 3 2 3 3 1 3 2 3 5 5 6 6
4 4 4 3 3 4 4 4 4 4 2 6 5 1 5 2 5 4 5 5 4 5 6 7 10 17 23 25 24 24 25 27 27 28 29 31 32 32 31 31 30 30 29 28 28 27 27 28 30 30 28 27 26 25 21 19 19 19 18 17 17 16 12 10 11 10 8 7 8 10 11 12 11 10 9 8 8 7 5 4 3 3 3 3 3 3 3 2 1 1 2 1 3 5 5 5 4
5 5 5 3 1 2 1 2 1 1 3 3 2 0 2 3 6 5 6 7 6 6 8 9 10 16 23 24 22 21 23 25 25 26 27 30 32 32 32 32 31 30 30 29 30 30 30 30 30 30 30 30 29 28 24 21 20 21 20 17 16 15 11 9 10 9 7 7 8 9 10 10 9 8 8 7 6 5 4 3 3 3 4 4 2 1 2 3 4 3 2 3 5 6 5 5 4
3 4 4 3 3 3 1 3 0 1 3 2 2 1 1 2 3 5 7 7 5 2 4 7 8 13 18 19 20 19 19 20 21 22 25 27 30 32 33 32 32 31 31 31 31 32 32 32 32 32 32 33 33 32 29 25 23 23 20 18 15 14 12 10 9 8 7 6 6 7 9 9 8 7 7 8 8 8 7 7 7 8 9 9 9 8 9 9 8 7 7 7 7 7 6 5 5
3 4 6 4 4 4 3 3 2 3 2 2 3 1 2 1 2 6 7 5 8 10 10 12 13 15 19 20 20 19 19 18 18 19 21 23 25 28 30 30 31 32 32 32 33 33 34 34 34 35 35 36 36 35 32 25 22 23 21 19 16 14 13 11 10 8 6 6 6 7 8 8 7 6 7 9 10 10 9 8 8 8 9 10 10 9 9 9 8 8 8 7 7 6 5 5 4
2 2 5 3 4 5 2 3 5 4 2 1 1 2 2 2 2 6 6 7 11 12 14 18 19 19 22 22 21 21 20 18 16 15 15 15 18 22 26 28 29 31 32 33 34 35 36 36 37 37 37 38 37 36 34 25 22 25 22 20 18 16 14 12 11 10 7 7 8 8 8 8 8 8 8 8 9 9 9 8 8 8 8 9 9 8 7 7 7 7 6 6 5 5 5 4 4
1 2 3 4 4 7 5 1 1 4 3 1 1 1 4 2 2 6 7 6 8 9 9 13 17 21 23 23 24 25 23 19 16 16 14 14 16 19 22 24 26 29 31 33 34 36 37 38 38 38 39 39 38 38 35 24 23 26 22 20 20 17 16 14 11 9 9 10 11 10 10 9 10 10 9 9 8 8 8 8 8 8 8 9 9 9 8 8 8 7 8 8 7 7 7 7 6
3 2 5 2 2 5 5 2 3 5 2 3 2 1 3 2 0 5 7 6 6 7 6 6 11 18 21 21 23 26 25 23 20 19 18 18 18 17 17 17 19 21 24 26 29 32 35 37 38 38 38 38 36 36 31 23 24 27 22 19 20 18 16 14 12 9 10 13 14 13 12 11 11 11 11 11 10 9 9 9 9 10 9 9 10 11 10 10 10 10 10 10 10 10 9 9 8
4 4 3 4 3 1 2 3 2 2 1 2 3 3 2 1 2 4 5 3 1 4 4 5 6 11 15 18 21 24 24 23 22 21 20 20 17 14 12 12 13 15 16 18 21 26 32 35 36 35 35 36 35 33 29 26 27 28 22 19 19 19 16 13 15 13 12 14 17 16 15 14 13 12 12 12 11 11 11 11 11 11 11 11 11 12 13 12 12 11 11 10 10 9 8 7 7
3 2 2 3 3 4 2 3 3 4 3 2 1 3 2 3 4 3 5 6 3 4 4 2 5 7 11 14 17 21 23 23 22 21 19 18 15 13 12 10 11 12 12 14 15 19 25 30 33 32 32 34 34 32 29 27 29 26 19 18 21 21 18 13 15 17 15 15 17 17 17 15 14 14 13 13 13 12 11 11 11 12 12 12 12 12 12 12 12 11 10 9 8 7 6 5 5
3 3 4 3 2 2 2 1 2 4 4 3 2 0 4 5 4 4 6 7 5 6 5 4 5 9 12 14 16 17 19 20 20 18 16 15 14 13 11 10 9 9 9 9 10 12 15 21 27 29 30 31 30 27 24 25 31 28 19 19 25 26 22 16 17 20 18 16 17 17 18 16 15 14 14 14 13 12 12 11 10 11 11 11 11 11 10 10 10 9 8 7 6 5 4 3 2
3 3 1 1 2 3 4 1 1 2 4 4 4 2 5 6 2 2 5 5 5 7 8 7 6 11 14 17 19 17 16 16 16 15 14 14 13 11 9 8 8 8 6 6 5 7 9 13 18 22 25 27 26 24 21 21 27 28 19 21 28 29 25 21 21 22 21 20 18 17 18 17 16 16 15 14 14 13 12 12 11 10 10 10 10 10 9 9 8 7 6 6 5 4 4 3 2
Wind_Direction
143 151 158 158 159 156 163 154 129 335 94 264 266 234 257 240 242 266 280 287 136 320 34 109 107 100 96 102 111 86 49 70 174 155 172 159 153 152 151 161 164 165 167 165 165 165 169 174 176 177 176 173 169 166 164 162 158 153 148 147 145 145 147 146 145 141 139 137 137 138 137 135 131 130 128 127 127 125 123 122 125 126 127 126 121 115 95 100 126 127 125 131 140 146 149 151 149
131 147 157 157 160 159 177 143 104 328 65 304 268 178 253 294 307 268 260 243 157 135 94 98 96 86 84 91 91 65 45 56 129 125 135 150 155 157 157 163 166 167 168 166 164 165 168 173 176 176 178 176 172 169 166 163 158 154 150 148 146 146 147 147 146 145 142 137 137 137 137 138 134 132 129 130 130 128 127 127 126 125 128 127 123 119 95 85 112 117 116 126 138 144 146 149 148
128 146 155 162 162 148 144 86 87 116 109 242 266 228 261 305 265 271 281 210 151 131 103 95 84 74 74 67 53 65 78 90 118 122 135 155 159 159 164 169 169 167 167 165 165 164 165 170 172 175 179 177 174 171 167 163 160 156 152 149 147 147 147 146 145 146 144 141 142 139 138 139 138 136 134 134 133 132 131 132 128 124 128 127 126 122 114 104 99 112 117 122 134 143 144 146 148
136 149 153 160 153 125 99 66 131 126 174 220 270 261 231 242 239 291 339 157 155 143 128 111 71 69 88 92 99 93 115 130 131 134 145 162 161 159 168 171 168 166 166 165 164 163 164 168 169 175 178 176 175 172 169 165 162 158 154 150 148 148 147 146 145 146 147 145 144 141 138 138 139 139 139 138 135 135 135 135 133 130 131 129 131 128 127 127 96 105 117 115 127 140 143 146 151
158 157 158 155 144 125 87 90 119 132 217 192 224 261 230 235 247 345 354 195 187 189 188 148 96 98 96 101 127 115 137 148 153 155 152 159 163 164 168 168 166 167 166 163 162 163 165 167 169 173 174 174 175 173 171 167 163 160 157 151 148 148 147 146 146 148 149 147 143 141 139 138 136 136 137 137 136 136 137 136 136 137 133 133 137 139 140 142 113 85 101 106 125 139 143 147 151
160 159 160 136 109 114 111 127 186 209 228 162 183 271 279 265 281 337 351 213 216 219 231 153 120 121 91 81 114 132 145 155 169 164 153 156 168 170 167 166 167 166 164 161 162 164 166 167 169 170 169 172 172 172 172 169 166 164 159 154 150 148 148 148 148 149 148 146 143 140 137 135 132 130 131 133 134 135 139 137 139 142 141 146 150 157 159 162 165 88 94 106 129 144 147 149 150
156 163 159 123 73 72 121 172 212 229 244 180 193 272 290 285 294 316 322 23 209 218 233 131 118 113 83 94 112 134 155 169 164 158 154 158 168 169 164 164 165 162 161 161 162 165 168 168 168 167 168 169 170 172 173 172 169 167 162 155 152 149 149 148 147 146 145 144 140 137 134 133 130 129 129 129 131 131 136 137 141 145 149 160 168 178 184 191 187 150 103 109 130 149 152 151 150
158 163 138 116 46 32 111 207 233 216 244 231 228 260 271 279 287 298 290 221 220 216 159 126 102 84 60 113 99 142 161 153 153 158 157 155 161 163 161 162 160 158 160 162 164 167 169 169 167 167 168 168 170 173 175 174 171 169 164 157 153 149 148 146 144 143 142 141 137 136 133 132 130 130 129 127 128 127 129 132 136 142 148 157 163 173 180 188 185 170 122 111 126 153 157 153 152
149 152 117 100 115 40 13 269 268 230 256 264 256 263 268 275 281 276 261 246 220 147 139 152 64 77 118 91 91 143 146 143 152 157 155 149 155 158 160 161 158 157 160 163 166 170 171 171 169 168 169 168 169 172 173 174 172 169 163 158 153 148 146 143 141 140 139 138 136 134 132 130 129 128 128 127 127 128 129 130 133 138 144 149 153 160 169 178 184 182 159 125 125 153 165 159 157
135 134 121 88 105 42 306 285 282 260 257 263 273 273 273 276 276 265 254 234 195 133 119 128 98 111 118 94 93 137 141 146 152 154 155 151 154 159 162 162 160 160 162 162 164 169 174 171 169 169 168 167 168 169 170 170 168 166 162 157 151 147 144 140 139 139 138 137 135 133 131 128 128 128 130 130 129 131 131 131 133 136 140 143 145 148 154 161 171 174 176 153 133 149 171 168 163
109 106 106 81 78 160 244 269 278 273 271 292 289 279 283 282 273 263 251 192 168 132 122 104 98 107 105 88 104 139 144 151 157 156 155 155 158 161 163 163 162 160 160 160 160 165 171 169 169 168 163 164 165 165 167 165 163 162 159 154 149 146 141 139 138 137 138 137 136 133 132 129 128 130 132 133 132 134 134 133 132 131 134 135 137 135 137 137 137 137 143 159 147 148 170 176 169
92 21 80 96 128 197 214 242 273 287 297 311 278 294 311 303 278 222 186 152 151 136 136 124 127 119 93 70 135 147 150 156 164 158 156 158 160 162 165 163 158 157 158 159 159 162 165 166 165 164 164 163 160 159 162 160 159 158 155 152 148 144 140 139 138 138 139 138 138 135 134 132 130 131 131 134 134 137 139 137 135 136 136 133 137 137 135 136 130 123 116 128 151 156 164 178 175
146 156 88 128 190 191 176 192 278 316 311 290 240 315 327 317 261 191 164 128 140 133 133 147 144 125 92 136 144 154 157 159 161 157 158 157 159 164 167 161 156 158 160 160 161 162 160 161 162 163 166 163 158 157 158 157 156 155 153 151 146 142 140 140 139 139 140 139 139 138 137 133 131 131 130 134 134 141 145 143 140 141 140 132 139 143 141 142 142 137 119 111 138 158 161 175 177
168 169 116 169 231 184 166 203 288 342 274 282 275 325 331 334 147 182 145 102 100 126 136 149 145 119 113 136 149 168 161 157 155 154 157 155 161 166 165 159 158 162 161 160 162 164 158 161 164 166 168 163 160 157 156 155 154 155 152 150 145 142 141 140 141 141 142 140 140 140 139 135 132 132 130 134 138 147 151 151 147 147 148 139 139 146 147 144 146 143 128 114 129 158 161 171 178
195 201 107 128 296 259 206 209 206 182 245 301 319 326 334 346 117 160 136 107 69 135 141 149 148 116 156 165 177 177 164 156 156 155 155 156 162 163 161 160 163 162 160 160 162 166 162 163 165 166 168 164 163 159 156 156 155 155 151 150 146 144 143 143 144 143 144 141 140 141 140 139 136 136 134 136 143 154 161 161 159 158 161 156 151 151 155 152 148 140 127 120 130 158 163 168 176
212 233 75 113 251 240 229 228 168 178 259 291 315 331 344 351 57 79 118 134 119 137 140 149 165 204 177 175 176 174 163 159 160 156 155 158 162 161 161 163 168 163 158 161 164 169 166 163 163 163 167 166 167 162 160 159 157 157 153 152 150 148 147 146 147 147 147 144 144 144 143 144 142 141 138 141 150 164 173 175 173 171 172 171 173 171 171 166 160 146 124 122 136 159 165 166 174
207 183 82 236 220 196 219 220 159 188 272 287 320 340 353 341 41 71 103 123 118 133 124 144 205 247 179 179 172 166 160 162 161 157 159 161 161 161 164 167 169 163 160 166 169 170 167 166 164 161 165 169 173 168 166 163 160 160 158 157 155 154 153 150 151 152 153 150 148 147 148 149 147 147 143 149 162 175 183 186 187 190 191 188 183 185 188 183 176 162 136 127 145 162 165 165 170
182 132 143 222 205 205 197 189 196 202 275 293 320 339 355 350 34 86 99 102 102 102 89 112 158 158 168 172 162 160 159 163 163 161 165 165 162 162 166 170 168 164 165 170 172 171 168 170 168 163 166 175 180 175 171 169 166 165 164 163 161 160 158 157 159 160 160 155 154 154 155 157 154 154 152 158 170 182 192 197 202 208 210 208 191 184 186 183 180 176 164 146 152 165 165 164 166
180 125 179 226 200 211 209 205 255 254 274 294 310 327 336 2 20 82 93 90 100 88 76 98 108 121 148 156 156 157 159 165 165 166 169 169 166 164 166 169 168 166 169 172 171 169 170 173 171 168 171 180 184 180 177 175 173 172 171 171 168 166 165 166 169 170 167 162 164 164 166 167 166 165 165 172 179 189 200 210 216 215 211 205 193 184 179 179 183 182 176 159 156 164 164 164 163
197 175 220 245 214 227 257 251 259 263 271 293 307 316 310 318 6 33 131 105 75 112 124 116 116 127 141 149 154 158 162 167 167 168 173 171 168 166 166 167 168 169 169 170 167 168 174 174 172 172 174 181 184 184 183 181 180 179 179 178 175 173 172 177 180 180 175 173 176 176 175 176 180 181 181 185 187 196 209 218 224 220 205 196 197 193 184 182 184 180 171 160 156 160 160 163 164
194 185 209 236 206 228 268 261 260 267 270 280 296 311 307 317 23 121 134 105 344 214 175 163 149 145 147 152 158 161 164 168 169 172 174 171 169 167 166 167 168 169 167 166 167 171 176 176 174 174 175 182 186 187 186 186 187 185 186 184 182 181 183 188 190 191 187 188 190 189 189 191 197 198 198 199 198 209 220 225 228 225 204 196 202 197 187 180 183 180 163 153 151 154 154 161 166
209 227 223 243 229 228 271 270 272 274 272 274 295 308 296 316 35 143 151 154 250 209 185 177 167 160 159 160 161 163 166 169 171 174 173 172 172 168 166 168 168 167 166 169 171 173 175 175 176 177 180 185 188 189 189 193 194 193 193 191 192 193 195 199 202 205 205 208 209 207 207 209 213 215 215 214 216 224 231 230 225 220 206 202 205 198 186 175 181 181 164 154 148 150 150 157 167
230 270 247 259 250 232 271 276 277 277 272 265 276 281 278 333 352 146 163 214 231 197 183 176 171 168 165 163 162 164 168 170 172 175 176 176 176 172 167 168 168 167 170 174 172 172 174 174 176 182 184 185 185 188 194 199 201 200 199 200 204 206 210 214 217 218 220 227 230 226 223 224 227 230 233 232 234 234 235 231 221 213 205 201 203 199 187 174 180 181 170 163 152 150 152 154 167
214 265 263 268 265 254 269 275 275 272 264 261 263 269 262 299 310 48 93 195 185 184 179 171 165 162 162 161 162 167 170 172 175 178 180 180 179 175 170 167 168 170 174 175 172 174 177 176 180 186 186 183 184 189 197 202 206 208 207 209 212 217 224 229 233 235 237 241 245 241 236 237 236 237 243 246 246 241 238 231 222 213 205 200 199 195 183 173 178 182 178 173 162 156 158 155 161
211 242 255 265 271 267 272 276 274 271 262 262 261 246 251 253 213 50 46 147 162 168 167 165 161 159 162 163 165 171 173 174 177 179 181 181 177 174 172 170 172 175 177 174 173 176 178 181 184 187 187 183 184 190 199 204 210 215 216 221 222 227 234 238 243 245 247 248 252 254 250 250 247 242 245 251 254 252 244 232 227 218 208 203 197 189 180 172 175 182 184 182 175 165 161 159 158
209 226 251 265 272 273 276 274 270 269 262 257 237 230 254 230 119 47 60 143 153 158 158 161 160 161 164 166 171 175 175 176 179 180 179 177 175 175 175 176 178 178 179 177 178 179 180 185 186 186 186 184 185 190 198 203 210 218 224 231 231 235 237 238 242 243 245 246 251 258 258 257 256 251 248 253 259 259 249 235 232 227 218 208 198 193 182 175 176 181 185 187 186 175 166 165 164
253 251 267 273 275 277 274 270 270 265 251 241 207 227 254 197 146 51 163 151 153 152 153 161 162 164 168 171 177 178 178 178 180 182 179 177 177 178 177 179 181 180 184 184 183 182 183 185 185 184 183 184 185 186 194 199 206 214 221 229 231 234 234 238 241 240 241 243 249 257 260 260 259 257 253 255 258 254 248 239 234 232 224 210 201 200 190 184 183 180 184 191 195 192 182 177 176
289 296 299 283 283 283 269 265 268 249 235 234 203 226 269 168 157 175 167 161 161 157 156 163 165 167 172 176 180 180 181 180 183 187 184 182 180 178 178 181 183 183 187 187 185 182 178 179 178 176 176 179 181 183 189 193 199 206 212 220 225 230 235 240 242 240 239 240 249 255 258 260 259 258 256 257 257 245 241 239 232 228 224 211 205 207 199 193 188 181 182 190 200 204 196 190 188
291 300 306 294 326 312 266 254 237 199 201 210 164 296 299 298 218 170 164 164 164 161 160 165 168 170 175 179 182 182 183 183 187 191 190 187 182 180 181 184 186 185 187 188 184 176 169 168 167 167 169 173 174 172 175 181 188 194 200 211 221 229 236 240 240 239 239 242 249 251 254 256 256 256 254 255 251 237 235 235 226 219 226 219 213 216 209 200 194 190 188 190 197 200 197 194 195
295 300 147 300 352 324 269 244 201 180 193 187 142 291 274 285 206 164 163 166 162 162 165 168 170 172 177 182 185 185 184 187 189 190 191 189 184 185 185 185 188 188 190 189 178 168 166 163 160 163 166 170 168 161 163 171 181 189 195 205 216 224 228 227 229 234 241 248 248 247 251 252 252 253 252 250 241 229 231 233 224 217 229 231 227 226 218 210 205 200 199 197 197 199 199 197 197
310 346 60 342 343 287 292 302 216 210 242 182 148 246 251 245 183 166 168 170 166 168 172 172 173 176 181 185 188 188 187 189 191 191 192 190 188 190 189 188 189 190 193 188 175 168 167 163 161 166 168 170 167 161 160 165 186 204 201 203 215 225 228 221 217 229 240 245 242 242 249 252 251 250 246 241 233 227 229 233 229 224 230 233 234 236 230 221 216 211 208 207 207 206 203 202 203
6 359 325 332 193 270 300 299 215 212 257 179 151 238 244 185 186 175 173 175 171 169 173 175 176 179 184 187 189 189 189 191 193 195 194 192 191 192 192 191 188 188 188 181 174 169 169 169 167 168 173 173 165 162 163 171 215 223 210 210 225 240 249 247 231 227 235 238 239 243 248 250 247 244 243 237 231 229 231 236 235 231 234 235 234 240 242 233 227 222 218 220 224 220 212 211 214
1 76 249 279 275 301 312 314 247 202 216 222 181 206 204 189 195 182 177 178 173 167 172 176 178 182 186 189 190 189 190 191 193 195 194 193 191 189 189 190 187 185 180 173 174 178 178 176 172 175 180 173 163 168 181 207 232 229 227 231 241 255 265 266 241 219 228 237 240 245 246 246 243 241 241 241 238 235 235 239 237 232 232 234 233 239 243 239 235 230 224 228 235 232 223 222 226
315 13 290 257 255 290 299 308 288 199 185 223 216 202 224 217 189 185 181 177 171 166 169 175 181 186 190 191 191 190 189 189 191 192 192 191 188 184 184 186 183 182 177 172 180 187 182 174 173 179 180 174 173 189 211 226 228 225 230 239 246 257 264 257 230 212 220 230 236 242 244 244 244 243 241 243 242 237 237 239 239 235 232 235 237 239 239 237 237 234 228 227 230 231 228 231 237
236 311 342 300 290 242 258 277 282 266 218 207 193 212 243 196 173 182 183 174 168 170 172 180 187 188 192 195 192 190 189 189 189 189 189 188 185 181 179 180 178 180 179 178 184 186 180 174 175 179 180 183 186 196 212 218 223 225 227 239 249 258 266 253 227 210 212 217 226 238 245 245 243 242 238 237 236 235 236 236 238 238 236 239 240 238 236 238 240 236 230 225 222 223 225 230 242
185 217 208 270 286 265 255 252 253 259 252 226 197 200 180 157 166 173 175 172 173 183 185 184 184 185 191 196 195 193 191 189 189 188 186 183 182 180 180 179 176 181 185 185 186 183 180 179 176 178 184 189 192 199 206 206 211 220 230 246 256 264 271 259 246 239 228 222 224 236 243 240 237 235 230 229 232 234 236 235 236 235 233 238 240 237 238 242 241 233 226 220 219 222 223 226 235
171 219 231 256 269 274 271 262 282 200 196 251 191 148 146 165 170 166 168 173 180 193 198 184 178 184 191 196 197 195 192 191 190 189 184 179 180 184 186 183 181 185 187 188 189 185 185 184 181 184 187 189 194 200 200 198 202 209 229 245 249 255 263 270 283 286 274 249 234 236 235 230 229 228 227 227 229 231 233 232 233 237 239 243 248 247 245 243 239 232 222 216 218 224 226 227 227
196 231 245 262 243 260 271 269 308 22 133 299 107 127 153 168 161 161 165 177 193 189 188 185 183 187 192 197 198 194 192 192 191 190 186 181 182 187 188 185 184 185 185 188 192 191 188 187 188 191 186 185 196 205 204 203 209 218 230 236 229 220 222 261 288 292 282 260 241 238 234 229 226 223 223 225 229 233 234 232 232 241 250 252 254 253 246 236 232 227 217 212 216 225 228 226 223
189 196 195 250 248 279 295 294 322 13 98 291 136 128 149 191 163 169 175 190 204 196 191 188 185 188 194 197 196 191 189 191 192 191 190 186 186 189 187 183 183 183 183 186 190 191 189 189 194 194 186 186 194 205 211 211 213 214 214 220 219 206 217 255 264 277 282 269 251 241 236 232 228 226 225 226 230 235 239 240 238 241 245 247 247 246 242 232 227 221 211 212 217 225 228 223 220
165 180 178 251 270 304 293 305 334 353 55 154 121 109 90 333 26 198 203 207 217 205 198 192 188 190 195 197 194 189 187 189 192 190 188 186 188 191 187 182 182 182 184 186 187 189 191 193 195 192 189 191 195 201 205 203 199 196 197 211 226 223 242 269 262 268 283 280 270 255 244 236 232 232 233 234 233 231 237 241 237 233 231 233 233 235 238 234 232 226 218 220 223 227 231 228 224
261 213 184 208 256 226 232 299 337 345 1 69 82 63 349 356 98 209 230 242 270 204 195 202 200 197 200 200 196 192 189 189 190 188 185 184 187 191 187 183 182 183 186 188 189 191 195 195 192 192 195 195 197 198 197 193 189 189 195 206 221 226 238 265 267 273 285 282 274 265 258 249 241 238 236 237 237 236 237 231 226 223 221 221 224 232 237 234 232 230 229 231 234 237 236 235 235
292 242 202 196 205 231 264 332 15 24 2 356 59 68 303 319 228 216 234 240 238 181 189 212 209 204 207 204 199 196 194 192 191 189 185 183 186 188 187 185 186 186 190 192 193 196 198 194 190 193 198 197 196 199 198 195 193 197 204 212 223 226 235 265 271 273 279 276 268 257 254 253 250 246 238 231 235 244 243 229 219 214 213 215 216 227 239 238 233 231 231 231 237 246 246 243 239
288 239 201 179 155 193 284 22 67 77 322 313 48 112 234 313 281 245 243 201 213 194 200 216 208 207 213 209 202 199 197 196 195 190 185 185 185 186 187 189 190 191 192 195 196 199 198 192 192 196 200 199 198 202 204 202 200 204 213 229 242 242 255 285 279 271 268 265 259 247 243 245 247 246 241 234 232 239 236 217 208 202 204 210 217 231 242 251 247 243 240 230 235 249 253 253 243
236 229 151 129 129 168 215 102 100 191 215 324 7 95 135 310 259 263 271 173 204 221 213 217 210 211 215 214 208 202 199 199 197 191 188 188 188 188 190 191 194 195 195 197 200 201 197 194 197 201 204 204 203 208 210 207 206 207 214 231 243 248 259 283 278 265 253 248 244 240 236 237 241 243 249 259 254 237 226 208 205 206 209 214 227 232 216 230 283 284 275 254 246 255 258 257 253
244 214 134 130 140 148 132 96 96 340 68 328 326 49 102 277 269 289 316 156 197 234 222 216 213 213 215 216 213 206 203 202 199 195 192 192 191 192 193 193 195 198 200 205 206 203 199 199 204 207 209 210 208 210 211 209 211 213 221 232 237 234 233 251 263 250 237 235 237 238 237 237 242 247 257 269 267 255 249 230 216 214 212 214 217 207 157 101 61 49 50 58 51 279 265 256 256
234 163 104 75 83 85 74 87 94 30 51 243 284 350 113 267 289 314 344 138 194 239 242 223 215 215 214 213 212 209 206 204 202 199 197 197 196 195 195 194 196 200 204 209 212 207 203 205 210 212 213 213 211 210 211 211 213 217 225 233 234 227 224 240 248 230 221 226 233 238 240 241 244 250 256 255 249 249 256 270 279 248 214 210 213 208 198 307 342 347 143 112 88 89 99 122 112
159 96 62 48 40 42 47 56 82 61 6 254 260 272 118 258 288 268 244 210 187 223 267 244 218 218 215 210 209 208 206 205 202 200 200 200 200 198 197 197 198 201 205 209 214 213 210 211 215 217 216 213 210 209 209 210 212 216 222 227 229 227 230 245 236 217 214 221 227 234 239 241 244 249 249 238 229 236 249 267 284 278 238 216 213 227 267 295 314 258 173 159 110 109 107 102 98
95 78 71 83 9 18 31 355 44 89 262 262 257 247 104 152 262 255 251 263 218 202 233 234 209 207 210 209 207 205 204 204 200 198 199 200 201 200 199 200 201 203 206 210 213 215 216 216 217 217 213 207 206 206 205 207 211 215 219 222 225 230 237 245 231 215 214 222 224 227 230 231 234 236 234 227 221 224 234 250 272 275 247 229 241 273 291 302 328 129 164 167 148 141 130 121 119
83 80 72 90 16 18 24 311 15 153 233 251 257 339 99 210 246 261 268 276 274 238 223 226 214 198 198 200 199 197 198 200 198 196 199 200 200 201 202 204 206 207 209 212 215 218 220 220 219 215 210 208 210 209 205 204 211 217 221 222 225 231 232 228 222 215 216 226 225 220 219 219 217 214 212 207 196 183 168 142 117 108 118 131 135 117 99 102 103 106 111 120 138 149 148 141 142
134 127 111 125 104 80 245 261 313 235 236 268 296 280 237 263 285 284 279 293 316 303 182 190 193 179 175 176 177 180 186 193 196 198 201 203 202 204 206 208 210 212 214 217 220 222 223 223 219 214 214 216 217 214 207 203 209 217 223 226 228 230 223 210 206 209 214 223 224 215 213 214 210 199 184 173 164 153 141 129 119 110 110 112 112 109 105 103 104 105 108 112 120 130 132 130 131
187 163 129 141 152 144 203 216 179 204 227 302 311 263 171 178 311 301 297 344 42 68 98 116 125 137 146 152 158 164 172 179 186 193 200 205 205 207 211 212 213 215 219 222 225 226 227 225 221 218 219 221 221 216 206 198 207 216 218 224 228 224 215 202 196 202 209 214 212 203 201 203 201 190 173 162 157 154 149 143 136 126 120 117 115 112 108 104 102 101 102 106 112 117 119 123 126
239 145 108 146 184 149 137 175 171 167 147 328 259 225 207 191 286 328 359 32 42 56 83 99 106 119 128 133 139 147 153 158 168 180 192 205 210 214 219 220 220 221 223 227 228 230 230 228 224 223 223 224 225 215 201 197 213 218 217 220 222 217 209 196 190 198 203 203 199 190 188 192 191 186 178 172 166 163 162 159 154 145 137 133 128 124 118 109 101 95 95 95 100 106 102 103 107
209 130 160 215 172 121 107 142 86 79 103 255 247 262 306 341 339 341 9 29 26 28 57 87 103 114 117 119 127 135 142 148 165 180 190 208 215 217 221 225 227 229 231 233 235 234 234 232 229 227 226 227 223 209 202 212 220 216 217 221 218 213 205 190 185 202 208 203 197 188 187 192 191 189 184 179 174 166 163 161 157 153 149 142 135 131 124 115 108 100 98 97 94 94 91 88 86
117 185 196 172 73 96 104 103 18 47 117 271 344 336 316 28 38 326 358 24 32 21 9 46 99 113 114 118 129 137 146 154 166 177 186 198 204 205 210 217 225 231 235 239 240 240 238 236 234 234 231 225 213 203 210 229 225 212 213 218 216 214 206 185 181 210 224 209 201 193 191 194 192 193 190 184 181 170 158 153 152 150 147 140 134 131 126 121 118 112 109 106 101 98 94 90 87
125 197 182 98 101 164 92 113 126 95 170 275 353 352 318 145 217 310 342 333 46 61 29 20 64 98 110 119 129 137 145 153 160 167 176 184 187 188 193 204 216 223 229 234 238 240 239 237 236 236 232 224 217 216 228 238 224 210 206 210 217 218 209 188 183 206 228 218 208 199 194 198 195 194 195 192 189 180 165 154 149 147 146 144 140 136 133 129 127 123 120 116 110 107 103 96 93
33 37 10 50 127 158 148 138 144 139 164 204 9 2 305 227 220 247 272 269 238 157 148 87 62 88 108 118 126 136 143 151 157 159 165 170 169 169 171 180 196 205 215 222 227 234 237 236 236 235 232 230 228 225 231 232 216 207 208 215 222 216 206 201 200 210 224 222 215 207 198 199 199 197 200 199 197 192 180 165 153 148 146 145 144 141 139 136 134 134 132 128 124 119 114 106 99
7 31 3 1 49 110 128 98 96 127 142 164 151 62 275 253 211 216 260 273 250 203 166 121 112 121 123 124 126 133 141 150 157 159 163 166 162 160 158 157 162 169 186 204 216 226 233 234 235 235 234 235 235 227 229 228 216 219 228 218 215 212 207 213 216 215 222 222 220 216 206 201 201 201 201 199 199 197 193 186 172 161 154 151 149 147 147 147 145 148 149 147 148 148 144 135 127
117 101 24 123 144 126 118 114 307 101 125 159 153 160 263 263 198 221 265 275 253 198 144 118 136 139 134 134 136 141 148 153 157 161 166 168 162 155 147 140 142 147 157 171 195 220 233 238 239 239 236 237 242 239 239 234 221 224 225 201 204 212 211 215 219 218 223 223 221 224 219 211 206 205 207 203 199 198 197 196 191 183 175 169 164 160 162 165 167 171 176 176 178 184 194 200 202